Regional Weather Roundup
Issued by NWS

Home | Current Version | Previous Version | Graphics & Text | Print | Product List | Glossary On
Versions: 1 2 3 4 5 6 7 8 9 10 11 12 13 14 15 16 17 18 19 20 21 22 23 24 25 26 27 28 29 30 31 32 33 34 35 36 37 38 39 40 41 42 43 44 45 46 47 48 49 50
306
ASUS43 KMKX 190411
RWRWI

WISCONSIN REGIONAL WEATHER ROUNDUP
NATIONAL WEATHER SERVICE MILWAUKEE/SULLIVAN WI
1000 PM CST WED JAN 18 2017

NOTE: "FAIR" INDICATES FEW OR NO CLOUDS BELOW 12,000 FEET WITH NO
SIGNIFICANT WEATHER AND/OR OBSTRUCTIONS TO VISIBILITY.

WIZ001-002-006>008-014>016-023>028-190500-
NORTHWEST WISCONSIN

CITY           SKY/WX    TMP DP  RH WIND       PRES   REMARKS
SUPERIOR ARPT  CLOUDY    29  26  87 SW3       29.82S
ASHLAND        CLOUDY    32  27  81 S7        29.83S WCI  26
HAYWARD        CLOUDY    29  25  85 S3        29.85S FOG
SIREN          CLOUDY    30  29  96 S5        29.84S FOG     WCI  25
CUMBERLAND     CLOUDY    27  27 100 S8        29.84F FOG     WCI  18
RICE LAKE      CLOUDY    29  28  97 SE5       29.88F FOG     WCI  24
CHETEK         CLOUDY    30  29  97 SE3       29.87F FOG
LADYSMITH      CLOUDY    31  29  94 S5        29.88F FOG     WCI  26
EAU CLAIRE     FOG       27  26  96 CALM      29.88F VSB 1
MENOMONIE      CLOUDY    28  28  99 MISG      29.88S FOG
NEW RICHMOND   CLOUDY    29  29  99 SE5       29.85F FOG     WCI  24
OSCEOLA        CLOUDY    28  28 100 CALM      29.87F FOG
$$

WIZ003>005-009-010-017-018-190500-
NORTH CENTRAL WISCONSIN

CITY           SKY/WX    TMP DP  RH WIND       PRES   REMARKS
MANITOWISH WTR CLOUDY    32  30  94 SW5       29.83S WCI  27
ARBOR VITAE    CLOUDY    32  29  89 SW3       29.84S
WOODRUFF       CLOUDY    32  29  89 SW3       29.84S
RHINELANDER    CLOUDY    31  29  92 SW9       29.86R WCI  23
EAGLE RIVER    CLOUDY    29  28  94 SW3       29.84R
LAND O LAKES   CLOUDY    28  25  91 CALM      29.85S
PHILLIPS       CLOUDY    29  28  96 S6        29.85S WCI  23
TOMAHAWK       CLOUDY    28  26  95 CALM      29.87S FOG
MEDFORD        CLOUDY    28  27  94 S7        29.88S FOG     WCI  21
MERRILL        CLOUDY    29  29  97 CALM        N/A  FOG
$$

WIZ029-030-035-036-043>047-190500-
CENTRAL WISCONSIN

CITY           SKY/WX    TMP DP  RH WIND       PRES   REMARKS
WAUSAU         CLOUDY    30  28  92 CALM      29.89S
MOSINEE        CLEAR     28  28 100 SW7       29.91F WCI  21
MARSHFIELD     CLOUDY    28  27  96 CALM      29.89F FOG
STEVENS POINT  CLOUDY    27  27 100 CALM      29.93S FOG
WAUPACA        CLOUDY    32  29  88 CALM      29.95S
WAUTOMA        CLOUDY    30  28  92 SW5       29.95F FOG     WCI  25
WISC RAPIDS    CLOUDY    30  29  96 SW6       29.93F FOG     WCI  24
CAMP DOUGLAS   CLOUDY    32  29  89 VRB5      29.93S WCI  27
$$

WIZ011>013-019>022-031-037>040-048>050-190500-
NORTHEAST WISCONSIN

CITY           SKY/WX    TMP DP  RH WIND       PRES   REMARKS
ANTIGO         CLEAR     29  28  95 W8        29.88S WCI  21
SHAWANO        CLEAR     34  30  86 SW7       29.91F WCI  28
OCONTO         CLEAR     33  29  87 SW6       29.91R WCI  27
STURGEON BAY   CLEAR     34  30  85 SW12      29.93R WCI  25
GREEN BAY      CLEAR     34  31  88 SW12      29.93S WCI  25
MANITOWOC      CLEAR     34  29  82 MISG      29.96R
APPLETON       CLEAR     30  30 100 SW9       29.93R WCI  22
CLINTONVILLE   CLOUDY    32  28  86 SW8       29.92S WCI  25
OSHKOSH        CLEAR     32  29  88 SW8       29.95S FOG     WCI  25
$$

WIZ032>034-041-042-053>061-190500-
SOUTHWEST WISCONSIN

CITY           SKY/WX    TMP DP  RH WIND       PRES   REMARKS
LA CROSSE      CLOUDY    36  32  85 S12       29.93F WCI  28
SPARTA         CLOUDY    31  31  98 SW3       29.94F FOG
VIROQUA        CLOUDY    32  32 100 S9        29.94S VSB 1/2 WCI  24
BOSCOBEL       CLOUDY    35  33  92 SW5       29.99F FOG     WCI  31
PRAIRIE DU CHI CLOUDY    35  33  93 CALM      29.98S FOG
PLATTEVILLE    CLEAR     33  33 100 S9        29.99S WCI  25
$$

WIZ056-057-062-063-064-067-068-190500-
SOUTH CENTRAL WISCONSIN

CITY           SKY/WX    TMP DP  RH WIND       PRES   REMARKS
REEDSBURG      CLOUDY    32  32 100 SW8       29.97S FOG     WCI  25
BARABOO/DELLS  CLOUDY    32  31  96 SW8G18    29.96S FOG     WCI  25
LONE ROCK      CLOUDY    34  32  92 S5        29.99F FOG     WCI  30
MINERAL POINT  FOG       34  34 100 S7        29.98S VSB 1/2 WCI  28
MADISON        CLOUDY    32  30  92 SW7       29.99F FOG     WCI  26
MIDDLETON      CLOUDY    33  33 100 SW5       29.99F WCI  29
WATERTOWN      CLOUDY    32  32 100 SW15      29.99F WCI  22
MONROE         CLOUDY    32  32 100 S8        29.99S FOG     WCI  25
JANESVILLE     CLOUDY    36  36 100 S8        30.01F FOG     WCI  29
$$

WIZ051-052-058>065-066-070>072-190500-
SOUTHEAST WISCONSIN

CITY           SKY/WX    TMP DP  RH WIND       PRES   REMARKS
MILWAUKEE      CLOUDY    34  30  85 SW10      30.00F WCI  26
WAUKESHA       CLOUDY    32  30  93 SW7       30.01S FOG     WCI  26
MILWAUKEE/TIMM CLOUDY    32  30  93 SW10      30.00F FOG     WCI  24
RACINE         CLOUDY    34  30  85 SW9G20    30.02F WCI  27
KENOSHA        CLOUDY    33  31  92 W12       30.03R FOG     WCI  24
FOND DU LAC    MOCLDY    33  29  85 SW14G22   29.96S FOG     WCI  23
SHEBOYGAN      CLEAR     33  29  85 SW12      29.96S WCI  24
WEST BEND      CLOUDY    32  32 100 SW15      29.96F WCI  22
JUNEAU         CLOUDY    32  31  96 SW13      29.99S FOG     WCI  22
$$

LSZ147-162-190500-
LAKE SUPERIOR

STATION/POSITION TIME  TEMP    WIND        PRES    WAVE
                       AIR SEA DIR/SP/G            HT/PER
                 (UTC) (F)     (DEG/KT/KT) (MB)    (FT/S)
DEVILS ISLAND    0300   37     210/ 10/ 11 1010.3R
PORT WING        0340   33      CALM  /  2 1010.2S
SAXON HARBOR     0340   31     170/  1/  2 1010.2S
$$

LMZ867-665-643>646-190500-
LAKE MICHIGAN

STATION/POSITION TIME  TEMP    WIND        PRES    WAVE
                       AIR SEA DIR/SP/G            HT/PER
                 (UTC) (F)     (DEG/KT/KT) (MB)    (FT/S)
NORTHPORT PIER   0340   33      CALM  /  5 1012.9R
SISTER BAY       0350   35     240/ 11/ 13   N/A
KEWAUNEE LAKESHO 0348   34     220/  2/  6 1013.4S
SHEBOYGAN LAKESH 0400   33     200/  9/ 10 1015.3R
PORT WASHINGTON  0330   33     230/  6/ 11 1016.3F
MILWAUKEE LAKESH 0350   34     260/ 10/ 12   N/A
KENOSHA   LAKESH 0400   34     240/  8/ 11 1016.9
$$

TC  - TEMPERATURE IN CELSIUS
VSB - VISIBILITY IN STATUTE MILES
WCI - WIND CHILL INDEX
HX  - HEAT INDEX





USA.gov is the U.S. government's official web portal to all federal, state and local government web resources and services.